DW6927 Weather Reports


Display with metric or nautical units.
time (UTC)temp
F
wind
direction
speed
MPH
gust
MPH
rain 1hr
in
rain 24hr
in
rain mn
in
humidity
%
barometer
mb
20260901192554 89 0 0.0 0.0 0.00 0.00 0.00 68 1020.5
20260901192056 89 0 0.0 0.0 0.00 0.00 0.00 70 1020.8
20260901191601 88 0 0.0 0.0 0.00 0.00 0.00 70 1020.8
20260901191052 88 0 0.0 0.0 0.00 0.00 0.00 66 1020.8
20260901190552 88 0 0.0 0.0 0.00 0.00 0.00 68 1020.7
20260901190111 88 0 0.0 0.0 0.00 0.00 0.00 70 1020.9
20260901185550 88 0 0.0 0.0 0.00 0.00 0.00 67 1020.9
20260901185050 88 0 0.0 0.0 0.00 0.00 0.00 68 1020.9
20260901184602 88 0 0.0 1.0 0.00 0.00 0.00 70 1021.0
20260901184050 88 0 0.0 1.0 0.00 0.00 0.00 69 1020.9
20260901183553 87 0 0.0 0.0 0.00 0.00 0.00 70 1021.0
20260901183105 87 0 0.0 0.0 0.00 0.00 0.00 71 1021.1
20260901182551 87 0 0.0 0.0 0.00 0.00 0.00 72 1021.1
20260901182051 87 0 0.0 0.0 0.00 0.00 0.00 72 1021.1
20260901181559 87 0 0.0 0.0 0.00 0.00 0.00 71 1021.4
20260901181051 87 0 0.0 0.0 0.00 0.00 0.00 67 1021.4
20260901180550 87 0 0.0 0.0 0.00 0.00 0.00 72 1021.4
20260901180055 87 0 0.0 3.0 0.00 0.00 0.00 70 1021.3
20260901175552 88 0 0.0 5.0 0.00 0.00 0.00 67 1021.2
20260901175051 88 0 0.0 5.0 0.00 0.00 0.00 67 1021.2
20260901174604 88 350 0.0 6.0 0.00 0.00 0.00 67 1021.3
20260901174103 88 234 0.0 6.0 0.00 0.00 0.00 69 1021.4
20260901173550 88 184 1.0 5.0 0.00 0.00 0.00 68 1021.5
20260901173110 88 0 1.0 3.0 0.00 0.00 0.00 65 1021.5
20260901172552 88 171 0.0 3.0 0.00 0.00 0.00 70 1021.6
20260901172050 88 0 0.0 4.0 0.00 0.00 0.00 70 1021.6
20260901171621 87 31 1.0 4.0 0.00 0.00 0.00 71 1021.7
20260901171052 87 0 0.0 2.0 0.00 0.00 0.00 72 1021.7
20260901170550 87 0 0.0 2.0 0.00 0.00 0.00 73 1021.8
20260901170104 87 286 0.0 2.0 0.00 0.00 0.00 71 1021.8
20260901165549 87 240 0.0 2.0 0.00 0.00 0.00 71 1022.0
20260901165051 87 113 0.0 2.0 0.00 0.00 0.00 68 1021.9
20260901164633 87 50 0.0 2.0 0.00 0.00 0.00 71 1022.1
20260901164050 86 208 0.0 2.0 0.00 0.00 0.00 69 1022.1
20260901163550 86 0 0.0 0.0 0.00 0.00 0.00 72 1022.2
20260901163056 86 0 0.0 1.0 0.00 0.00 0.00 73 1022.2
20260901162553 86 0 0.0 1.0 0.00 0.00 0.00 72 1022.2
20260901162053 85 0 0.0 1.0 0.00 0.00 0.00 74 1022.3
20260901161607 85 0 0.0 0.0 0.00 0.00 0.00 73 1022.3
20260901161050 84 0 0.0 0.0 0.00 0.00 0.00 74 1022.4
20260901160549 84 0 0.0 0.0 0.00 0.00 0.00 75 1022.4
20260901155550 84 0 0.0 0.0 0.00 0.00 0.00 75 1022.6
20260901155051 84 0 0.0 0.0 0.00 0.00 0.00 74 1022.7
20260901154558 84 0 0.0 0.0 0.00 0.00 0.00 74 1022.7
20260901154050 84 0 0.0 0.0 0.00 0.00 0.00 72 1022.7
20260901153551 84 0 0.0 0.0 0.00 0.00 0.00 75 1022.6
20260901153058 84 0 0.0 0.0 0.00 0.00 0.00 76 1022.7
20260901152550 83 0 0.0 0.0 0.00 0.00 0.00 76 1022.8
20260901152050 83 0 0.0 0.0 0.00 0.00 0.00 75 1022.8
20260901151607 83 0 0.0 0.0 0.00 0.00 0.00 80 1022.8
20260901151051 82 0 0.0 0.0 0.00 0.00 0.00 78 1022.9
20260901150549 82 0 0.0 0.0 0.00 0.00 0.00 81 1022.8
20260901150057 81 0 0.0 0.0 0.00 0.00 0.00 80 1022.8
20260901145551 80 0 0.0 0.0 0.00 0.00 0.00 81 1022.9
20260901145050 79 0 0.0 0.0 0.00 0.00 0.00 85 1022.8
20260901144559 79 0 0.0 0.0 0.00 0.00 0.00 85 1022.8
20260901144050 79 0 0.0 0.0 0.00 0.00 0.00 87 1022.7
20260901143550 78 0 0.0 0.0 0.00 0.00 0.00 90 1022.8
20260901143055 77 0 0.0 0.0 0.00 0.00 0.00 90 1022.8
20260901142556 77 0 0.0 0.0 0.00 0.00 0.00 91 1022.9
20260901142053 76 0 0.0 0.0 0.00 0.00 0.00 93 1022.8
20260901141607 76 0 0.0 0.0 0.00 0.00 0.00 94 1022.7
20260901141051 75 0 0.0 0.0 0.00 0.00 0.00 94 1022.8
20260901140549 74 0 0.0 0.0 0.00 0.00 0.00 95 1022.8
20260901140055 74 0 0.0 0.0 0.00 0.00 0.00 95 1022.7
20260901135553 73 0 0.0 0.0 0.00 0.00 0.00 96 1022.7
20260901135051 73 0 0.0 0.0 0.00 0.00 0.00 96 1022.9
20260901134601 73 0 0.0 0.0 0.00 0.00 0.00 97 1022.7
20260901134050 72 0 0.0 0.0 0.00 0.00 0.00 97 1022.9
20260901133550 72 0 0.0 0.0 0.00 0.00 0.00 97 1022.9
20260901133057 71 0 0.0 0.0 0.00 0.00 0.00 98 1022.9
20260901132553 71 0 0.0 0.0 0.00 0.00 0.00 98 1022.8
20260901132050 70 0 0.0 0.0 0.00 0.00 0.00 98 1022.7
20260901131611 70 0 0.0 0.0 0.00 0.00 0.00 98 1022.6
20260901131051 70 0 0.0 0.0 0.00 0.00 0.00 98 1022.6
20260901130550 69 0 0.0 0.0 0.00 0.00 0.00 98 1022.6
20260901130059 69 0 0.0 0.0 0.00 0.00 0.00 98 1022.6
20260901125550 68 0 0.0 0.0 0.00 0.00 0.00 98 1022.5
20260901125050 68 0 0.0 0.0 0.00 0.00 0.00 98 1022.6
20260901124559 68 0 0.0 0.0 0.00 0.00 0.00 98 1022.5
20260901124050 68 0 0.0 0.0 0.00 0.00 0.00 98 1022.5
20260901123551 67 0 0.0 0.0 0.00 0.00 0.00 98 1022.4
20260901123055 67 0 0.0 0.0 0.00 0.00 0.00 97 1022.3
20260901122550 67 0 0.0 0.0 0.00 0.00 0.00 97 1022.4
20260901122051 67 0 0.0 0.0 0.00 0.00 0.00 98 1022.5
20260901121612 67 0 0.0 0.0 0.00 0.00 0.00 97 1022.3
20260901121051 67 0 0.0 0.0 0.00 0.00 0.00 97 1022.0
20260901120550 66 0 0.0 0.0 0.00 0.00 0.00 97 1022.1
20260901120107 66 0 0.0 0.0 0.00 0.00 0.00 97 1022.1
20260901115551 66 0 0.0 0.0 0.00 0.00 0.00 97 1022.0
20260901115053 66 0 0.0 0.0 0.00 0.00 0.00 97 1022.0
20260901114601 66 0 0.0 0.0 0.00 0.00 0.00 97 1022.0
20260901114050 66 0 0.0 0.0 0.00 0.00 0.00 97 1021.9
20260901113550 66 0 0.0 0.0 0.00 0.00 0.00 97 1021.7
20260901113101 66 0 0.0 0.0 0.00 0.00 0.00 97 1021.6
20260901112552 66 0 0.0 0.0 0.00 0.00 0.00 97 1021.7
20260901112052 66 0 0.0 0.0 0.00 0.00 0.00 97 1021.6
20260901111613 66 0 0.0 0.0 0.00 0.00 0.00 97 1021.5
20260901111051 66 0 0.0 0.0 0.00 0.00 0.00 97 1021.4
20260901110550 66 0 0.0 0.0 0.00 0.00 0.00 97 1021.5
20260901110104 66 0 0.0 0.0 0.00 0.00 0.00 97 1021.4
20260901105551 66 0 0.0 0.0 0.00 0.00 0.00 96 1021.3
20260901105053 66 0 0.0 0.0 0.00 0.00 0.00 96 1021.1
20260901104604 66 0 0.0 0.0 0.00 0.00 0.00 96 1021.3
20260901104050 67 0 0.0 0.0 0.00 0.00 0.00 96 1021.1
20260901103549 67 0 0.0 0.0 0.00 0.00 0.00 97 1021.1
20260901103124 67 0 0.0 0.0 0.00 0.00 0.00 97 1021.2
20260901102550 67 0 0.0 0.0 0.00 0.00 0.00 97 1021.4
20260901102050 67 0 0.0 0.0 0.00 0.00 0.00 97 1021.3
20260901101604 67 0 0.0 0.0 0.00 0.00 0.00 97 1021.1
20260901101049 67 0 0.0 0.0 0.00 0.00 0.00 97 1021.1
20260901100550 67 0 0.0 0.0 0.00 0.00 0.00 96 1021.1
20260901100107 67 0 0.0 0.0 0.00 0.00 0.00 96 1021.1
20260901095550 67 0 0.0 0.0 0.00 0.00 0.00 96 1021.0
20260901095051 67 0 0.0 0.0 0.00 0.00 0.00 96 1021.1
20260901094559 67 0 0.0 0.0 0.00 0.00 0.00 96 1020.9
20260901094053 67 0 0.0 0.0 0.00 0.00 0.00 96 1021.1
20260901093554 67 0 0.0 0.0 0.00 0.00 0.00 97 1021.0
20260901093129 67 0 0.0 0.0 0.00 0.00 0.00 97 1020.9
20260901092551 67 0 0.0 0.0 0.00 0.00 0.00 96 1020.9
20260901092050 67 0 0.0 0.0 0.00 0.00 0.00 96 1020.9
20260901091609 67 0 0.0 0.0 0.00 0.00 0.00 96 1020.9
20260901091054 68 0 0.0 0.0 0.00 0.00 0.00 97 1020.8
20260901090554 68 0 0.0 0.0 0.00 0.00 0.00 97 1021.0
20260901090056 67 0 0.0 0.0 0.00 0.00 0.00 96 1020.7
20260901085550 67 0 0.0 0.0 0.00 0.00 0.00 96 1020.9
20260901085051 67 0 0.0 0.0 0.00 0.00 0.00 96 1020.8
20260901084608 67 0 0.0 0.0 0.00 0.00 0.00 96 1020.9
20260901084050 67 0 0.0 0.0 0.00 0.00 0.00 96 1020.8
20260901083549 67 0 0.0 0.0 0.00 0.00 0.00 96 1020.9
20260901083059 67 0 0.0 0.0 0.00 0.00 0.00 96 1020.9
20260901082553 67 0 0.0 0.0 0.00 0.00 0.00 96 1020.8
20260901082049 68 0 0.0 0.0 0.00 0.00 0.00 96 1020.8
20260901081610 68 0 0.0 0.0 0.00 0.00 0.00 96 1020.8
20260901081053 68 0 0.0 0.0 0.00 0.00 0.00 96 1020.8
20260901080552 68 0 0.0 0.0 0.00 0.00 0.00 96 1020.8
20260901080107 68 0 0.0 0.0 0.00 0.00 0.00 96 1020.9
20260901075554 68 0 0.0 0.0 0.00 0.00 0.00 96 1020.7
20260901075050 68 0 0.0 0.0 0.00 0.00 0.00 96 1020.9
20260901074555 68 0 0.0 0.0 0.00 0.00 0.00 96 1020.8
20260901074050 68 0 0.0 0.0 0.00 0.00 0.00 96 1020.8
20260901073550 68 0 0.0 0.0 0.00 0.00 0.00 96 1020.9
20260901073104 68 0 0.0 0.0 0.00 0.00 0.00 96 1020.8
20260901072552 68 0 0.0 0.0 0.00 0.00 0.00 96 1020.8
20260901072050 68 0 0.0 0.0 0.00 0.00 0.00 96 1020.9
20260901071603 68 0 0.0 0.0 0.00 0.00 0.00 96 1020.8
20260901071051 68 0 0.0 0.0 0.00 0.00 0.00 96 1020.9
20260901070552 69 0 0.0 0.0 0.00 0.00 0.00 96 1020.9
20260901070103 69 0 0.0 0.0 0.00 0.00 0.00 96 1021.0
20260901065550 69 0 0.0 0.0 0.00 0.00 0.00 96 1021.0
20260901065052 69 0 0.0 0.0 0.00 0.00 0.00 96 1021.0
20260901064554 69 0 0.0 0.0 0.00 0.00 0.00 95 1021.1
20260901064049 69 0 0.0 0.0 0.00 0.00 0.00 95 1020.9
20260901063549 69 0 0.0 0.0 0.00 0.00 0.00 95 1021.2
20260901063059 69 0 0.0 0.0 0.00 0.00 0.00 95 1021.1
20260901062550 69 0 0.0 0.0 0.00 0.00 0.00 95 1021.3
20260901062053 69 0 0.0 0.0 0.00 0.00 0.00 95 1021.4
20260901061603 69 0 0.0 0.0 0.00 0.00 0.00 95 1021.4
20260901061051 69 0 0.0 0.0 0.00 0.00 0.00 95 1021.4
20260901060551 69 0 0.0 0.0 0.00 0.00 0.00 95 1021.6
20260901060058 70 0 0.0 0.0 0.00 0.00 0.00 95 1021.5
20260901055550 70 0 0.0 0.0 0.00 0.00 0.00 95 1021.5
20260901055052 70 0 0.0 0.0 0.00 0.00 0.00 95 1021.4
20260901054553 70 0 0.0 0.0 0.00 0.00 0.00 95 1021.4
20260901054050 70 0 0.0 0.0 0.00 0.00 0.00 95 1021.5
20260901053551 70 0 0.0 0.0 0.00 0.00 0.00 95 1021.5
20260901053119 70 0 0.0 0.0 0.00 0.00 0.00 95 1021.5
20260901052550 70 0 0.0 0.0 0.00 0.00 0.00 95 1021.5
20260901052051 70 0 0.0 0.0 0.00 0.00 0.00 95 1021.6
20260901051555 70 0 0.0 0.0 0.00 0.00 0.00 95 1021.5
20260901051049 70 0 0.0 0.0 0.00 0.00 0.00 95 1021.7
20260901050552 70 0 0.0 0.0 0.00 0.00 0.00 95 1021.5
20260901050105 70 0 0.0 0.0 0.00 0.00 0.00 94 1021.4
20260901045553 70 0 0.0 0.0 0.00 0.00 0.00 94 1021.5
20260901045049 70 0 0.0 0.0 0.00 0.00 0.00 94 1021.4
20260901044558 70 0 0.0 0.0 0.00 0.00 0.00 94 1021.4
20260901044053 70 0 0.0 0.0 0.00 0.00 0.00 94 1021.4
20260901043554 71 0 0.0 0.0 0.00 0.00 0.00 94 1021.3
20260901043120 71 0 0.0 0.0 0.00 0.00 0.00 94 1021.4
20260901042553 71 0 0.0 0.0 0.00 0.00 0.00 94 1021.5
20260901042053 71 0 0.0 0.0 0.00 0.00 0.00 94 1021.4
20260901041609 71 0 0.0 0.0 0.00 0.00 0.00 94 1021.4
20260901041054 71 0 0.0 0.0 0.00 0.00 0.00 94 1021.2
20260901040554 71 0 0.0 0.0 0.00 0.00 0.00 93 1021.4
20260901040106 71 0 0.0 0.0 0.00 0.00 0.00 93 1021.2
20260901035554 71 0 0.0 0.0 0.00 0.00 0.00 94 1021.1
20260901035053 71 0 0.0 0.0 0.00 0.00 0.00 93 1021.1
20260901034607 71 0 0.0 0.0 0.00 0.00 0.00 93 1021.3
20260901034053 71 0 0.0 0.0 0.00 0.00 0.00 93 1021.1
20260901033553 71 0 0.0 0.0 0.00 0.00 0.00 93 1021.1
20260901033105 71 0 0.0 0.0 0.00 0.00 0.00 93 1021.3
20260901032554 71 0 0.0 0.0 0.00 0.00 0.00 93 1021.2
20260901032055 71 0 0.0 0.0 0.00 0.00 0.00 93 1021.4
20260901031556 71 0 0.0 0.0 0.00 0.00 0.00 92 1021.2
20260901031054 72 0 0.0 0.0 0.00 0.00 0.00 92 1021.3
20260901030554 72 0 0.0 0.0 0.00 0.00 0.00 92 1021.3
20260901030100 72 0 0.0 0.0 0.00 0.00 0.00 92 1021.2
20260901025554 72 0 0.0 0.0 0.00 0.00 0.00 92 1021.2
20260901025054 72 0 0.0 0.0 0.00 0.00 0.00 92 1021.2
20260901024607 72 0 0.0 0.0 0.00 0.00 0.00 91 1021.3
20260901024058 72 0 0.0 0.0 0.00 0.00 0.00 91 1021.3
20260901023553 72 0 0.0 0.0 0.00 0.00 0.00 91 1021.1
20260901023059 73 0 0.0 0.0 0.00 0.00 0.00 91 1021.3
20260901022553 73 0 0.0 0.0 0.00 0.00 0.00 91 1021.1
20260901022054 73 0 0.0 0.0 0.00 0.00 0.00 90 1021.1
20260901021559 73 0 0.0 0.0 0.00 0.00 0.00 90 1021.1
20260901021055 73 0 0.0 0.0 0.00 0.00 0.00 90 1021.1
20260901020554 73 0 0.0 0.0 0.00 0.00 0.00 90 1021.3
20260901020106 73 0 0.0 0.0 0.00 0.00 0.00 90 1021.3
20260901015555 74 0 0.0 0.0 0.00 0.00 0.00 89 1021.0
20260901015054 74 0 0.0 0.0 0.00 0.00 0.00 89 1020.8
20260901014604 74 0 0.0 0.0 0.00 0.00 0.00 88 1020.9
20260901014054 74 0 0.0 0.0 0.00 0.00 0.00 88 1020.9
20260901013554 74 0 0.0 0.0 0.00 0.00 0.00 88 1020.8
20260901013058 74 0 0.0 0.0 0.00 0.00 0.00 87 1020.7
20260901012554 75 0 0.0 0.0 0.00 0.00 0.00 87 1020.6
20260901012054 75 0 0.0 0.0 0.00 0.00 0.00 87 1020.6
20260901011605 75 0 0.0 0.0 0.00 0.00 0.00 87 1020.5
20260901011054 75 0 0.0 0.0 0.00 0.00 0.00 86 1020.4
20260901010556 75 0 0.0 0.0 0.00 0.00 0.00 85 1020.4
20260901010107 76 0 0.0 0.0 0.00 0.00 0.00 85 1020.5
20260901005554 76 0 0.0 0.0 0.00 0.00 0.00 85 1020.4
20260901005053 76 0 0.0 0.0 0.00 0.00 0.00 85 1020.4
20260901004603 76 0 0.0 0.0 0.00 0.00 0.00 84 1020.3
20260901004053 76 0 0.0 0.0 0.00 0.00 0.00 84 1020.3
20260901003557 77 0 0.0 0.0 0.00 0.00 0.00 83 1020.3
20260901003102 77 0 0.0 0.0 0.00 0.00 0.00 83 1020.3
20260901002551 77 0 0.0 0.0 0.00 0.00 0.00 82 1020.2
20260901002054 78 0 0.0 0.0 0.00 0.00 0.00 83 1020.3
20260901001559 78 0 0.0 0.0 0.00 0.00 0.00 82 1020.2
20260901001056 78 0 0.0 0.0 0.00 0.00 0.00 82 1020.3
20260901000554 78 0 0.0 0.0 0.00 0.00 0.00 82 1020.2
20260901000055 79 0 0.0 0.0 0.00 0.00 0.00 82 1020.2
20260831235555 79 0 0.0 0.0 0.00 0.00 0.00 82 1020.2
20260831235054 79 0 0.0 0.0 0.00 0.00 0.00 82 1020.2
20260831234603 79 0 0.0 0.0 0.00 0.00 0.00 81 1020.2
20260831234054 79 0 0.0 0.0 0.00 0.00 0.00 80 1020.1
20260831233554 79 0 0.0 0.0 0.00 0.00 0.00 80 1020.2
20260831233101 80 0 0.0 0.0 0.00 0.00 0.00 78 1020.1
20260831232553 80 0 0.0 0.0 0.00 0.00 0.00 77 1020.1
20260831232053 80 0 0.0 0.0 0.00 0.00 0.00 77 1020.1
20260831231556 80 0 0.0 0.0 0.00 0.00 0.00 77 1020.2
20260831231058 81 0 0.0 0.0 0.00 0.00 0.00 77 1020.1
20260831230553 81 0 0.0 0.0 0.00 0.00 0.00 77 1020.1
20260831230108 81 0 0.0 0.0 0.00 0.00 0.00 76 1020.1
20260831225554 81 0 0.0 0.0 0.00 0.00 0.00 76 1020.3
20260831225053 81 0 0.0 0.0 0.00 0.00 0.00 75 1020.3
20260831224602 81 0 0.0 0.0 0.00 0.00 0.00 75 1020.3
20260831224054 81 0 0.0 0.0 0.00 0.00 0.00 75 1020.4
20260831223555 81 0 0.0 1.0 0.00 0.00 0.00 74 1020.4
20260831223059 82 0 0.0 2.0 0.00 0.00 0.00 73 1020.5
20260831222554 82 238 0.0 2.0 0.00 0.00 0.00 73 1020.6
20260831222054 82 238 0.0 2.0 0.00 0.00 0.00 73 1020.5
20260831221602 82 0 0.0 2.0 0.00 0.00 0.00 73 1020.6
20260831221054 82 0 0.0 2.0 0.00 0.00 0.00 72 1020.5
20260831220554 83 0 0.0 2.0 0.00 0.00 0.00 72 1020.6
20260831220131 83 0 0.0 2.0 0.00 0.00 0.00 71 1020.5
20260831215558 83 145 0.0 1.0 0.00 0.00 0.00 71 1020.7
20260831215054 83 0 0.0 3.0 0.00 0.00 0.00 71 1020.7
20260831214558 83 0 0.0 3.0 0.00 0.00 0.00 72 1020.8
20260831214053 83 0 0.0 0.0 0.00 0.00 0.00 68 1020.7
20260831213553 84 0 0.0 0.0 0.00 0.00 0.00 71 1020.8
20260831213105 84 0 0.0 0.0 0.00 0.00 0.00 70 1020.6
20260831212554 85 0 0.0 0.0 0.00 0.00 0.00 69 1020.8
20260831212054 85 0 0.0 0.0 0.00 0.00 0.00 70 1020.6
20260831211605 85 0 0.0 0.0 0.00 0.00 0.00 70 1020.6
20260831211054 86 0 0.0 0.0 0.00 0.00 0.00 67 1020.4
20260831210553 86 0 0.0 0.0 0.00 0.00 0.00 64 1020.5
20260831210100 86 0 0.0 0.0 0.00 0.00 0.00 66 1020.6
20260831205555 86 0 0.0 0.0 0.00 0.00 0.00 65 1020.5
20260831205055 86 0 0.0 0.0 0.00 0.00 0.00 66 1020.7
20260831204601 87 0 0.0 0.0 0.00 0.00 0.00 65 1020.8
20260831204054 87 0 0.0 0.0 0.00 0.00 0.00 67 1020.8
20260831203553 87 0 0.0 0.0 0.00 0.00 0.00 67 1020.9
20260831203123 87 0 0.0 2.0 0.00 0.00 0.00 65 1020.8
20260831202554 87 0 0.0 2.0 0.00 0.00 0.00 67 1020.9
20260831202054 88 0 0.0 0.0 0.00 0.00 0.00 65 1020.9
20260831201558 87 0 0.0 1.0 0.00 0.00 0.00 69 1020.9
20260831201054 87 0 0.0 1.0 0.00 0.00 0.00 70 1021.0
20260831200557 86 0 0.0 1.0 0.00 0.00 0.00 70 1021.0
20260831200058 86 0 0.0 3.0 0.00 0.00 0.00 70 1021.2
20260831195557 86 0 0.0 3.0 0.00 0.00 0.00 69 1021.2
20260831195054 86 0 1.0 3.0 0.00 0.00 0.00 68 1021.3
20260831194607 87 148 0.0 4.0 0.00 0.00 0.00 69 1021.4
20260831194054 87 148 0.0 4.0 0.00 0.00 0.00 69 1021.4
20260831193554 88 0 0.0 3.0 0.00 0.00 0.00 66 1021.5
20260831193058 88 0 0.0 1.0 0.00 0.00 0.00 67 1021.6